IZ0QWM-13 Scandriglia IT current weather conditions

sailwx.info

Wind from 270

Air temperature 26.1° C
Dewpoint 7.6° C

Last reported at 2016-Jul-23 10:54 UTC.
Time now 2016-Jul-23 11:12 UTC

Location: N 42°10' E 012°47'.
View on Google Maps.

See reports from other nearby stations

  
Tides and Currents Weather Stations Pressure Air Temp Water Temp Dewpoint Dewpoint Depression Visibility Wind Speed Wind Dir Waves Ship Positions
date/time (UTC)wind fromknots sea level pressurealtimeterstation pressurevisibilityair tempwater tempwave heightnotes
2016-Jul-23 10:54 270 26.1
2016-Jul-23 10:44 280 26.7
2016-Jul-23 10:34 274 28.9
2016-Jul-23 10:24 274 28.3
2016-Jul-23 10:14 274 25.0
2016-Jul-23 10:04 274 28.3
2016-Jul-23 09:54 274 28.9
2016-Jul-23 09:44 148 27.8
2016-Jul-23 09:34 298 25.6
2016-Jul-23 09:24 359 27.8
2016-Jul-23 09:14 283 27.8
2016-Jul-23 09:04 195 27.2
2016-Jul-23 08:54 195 27.2
2016-Jul-23 08:44 195 26.7
2016-Jul-23 08:34 191 2 gusting 3 26.7
2016-Jul-23 08:24 191 25.6
2016-Jul-23 08:14 028 25.0
2016-Jul-23 08:04 028 24.4
2016-Jul-23 07:54 028 24.4
2016-Jul-23 07:44 028 24.4
2016-Jul-23 07:34 028 23.9
2016-Jul-23 07:24 028 23.9
2016-Jul-23 07:14 028 23.9
2016-Jul-23 07:04 028 23.9
2016-Jul-23 06:54 028 24.4
2016-Jul-23 06:44 028 23.9
2016-Jul-23 06:34 028 23.3
2016-Jul-23 06:24 028 22.2
2016-Jul-23 06:14 028 21.7
2016-Jul-23 06:04 028 22.2
2016-Jul-23 05:54 028 21.7
2016-Jul-23 05:44 072 21.1
2016-Jul-23 05:34 072 20.6
2016-Jul-23 05:24 079 20.6
2016-Jul-23 05:14 079 20.6
2016-Jul-23 05:04 079 20.6
2016-Jul-23 04:54 079 20.6
2016-Jul-23 04:44 079 20.0
2016-Jul-23 04:34 079 20.6
2016-Jul-23 04:24 068 21.1
2016-Jul-23 04:14 053 21.1
2016-Jul-23 04:04 053 20.6
2016-Jul-23 03:54 053 20.6
2016-Jul-23 03:44 090 21.1
2016-Jul-23 03:34 090 20.6
2016-Jul-23 03:24 090 20.0
2016-Jul-23 03:14 090 20.6
2016-Jul-23 03:04 090 21.1
2016-Jul-23 02:54 090 20.6
2016-Jul-23 02:44 090 20.0
2016-Jul-23 02:34 075 20.0
2016-Jul-23 02:24 065 20.0
2016-Jul-23 02:14 075 20.0
2016-Jul-23 02:04 075 19.4
2016-Jul-23 01:54 075 20.0
2016-Jul-23 01:44 075 20.0
2016-Jul-23 01:34 065 20.0
2016-Jul-23 01:24 080 20.0
2016-Jul-23 01:14 080 20.6
2016-Jul-23 01:04 080 20.0
2016-Jul-23 00:54 080 20.0
2016-Jul-23 00:44 080 19.4
2016-Jul-23 00:34 066 20.0
2016-Jul-23 00:24 066 20.0
2016-Jul-23 00:14 022 20.6
2016-Jul-23 00:04 022 20.0
2016-Jul-22 23:54 022 19.4
2016-Jul-22 23:44 022 20.0
2016-Jul-22 23:34 022 20.0
2016-Jul-22 23:24 022 20.0
2016-Jul-22 23:14 022 20.0
2016-Jul-22 23:04 022 20.6
2016-Jul-22 22:54 015 20.6
2016-Jul-22 22:44 015 20.6
2016-Jul-22 22:34 075 20.6
2016-Jul-22 22:24 066 20.6
2016-Jul-22 22:14 066 20.6
2016-Jul-22 22:04 066 21.1
2016-Jul-22 21:54 028 21.1
2016-Jul-22 21:44 028 21.1
2016-Jul-22 21:34 028 21.7
2016-Jul-22 21:24 028 21.7
2016-Jul-22 21:14 028 22.2
2016-Jul-22 21:04 235 21.7
2016-Jul-22 20:54 235 22.2
2016-Jul-22 20:44 235 22.2
2016-Jul-22 20:34 235 22.8
2016-Jul-22 20:24 235 22.8
2016-Jul-22 20:14 235 22.8
2016-Jul-22 20:04 235 23.3
2016-Jul-22 19:54 235 23.3
2016-Jul-22 19:44 235 22.8
2016-Jul-22 19:34 235 22.8
2016-Jul-22 19:24 235 23.3
2016-Jul-22 19:14 235 23.9
2016-Jul-22 19:04 235 24.4
2016-Jul-22 18:54 235 25.6
2016-Jul-22 18:44 235 25.0
2016-Jul-22 18:34 235 25.0
2016-Jul-22 18:24 235 24.4
2016-Jul-22 18:14 235 24.4
2016-Jul-22 18:04 235 25.0
2016-Jul-22 17:54 235 25.6
2016-Jul-22 17:44 211 25.6
2016-Jul-22 17:34 188 27.2
2016-Jul-22 17:24 188 27.2
2016-Jul-22 17:14 177 4 gusting 6 28.3
2016-Jul-22 17:04 146 4 gusting 9 27.8
2016-Jul-22 16:54 202 3 gusting 6 27.2
2016-Jul-22 16:44 179 26.1
2016-Jul-22 16:34 229 2 gusting 6 26.1
2016-Jul-22 16:24 188 28.3
2016-Jul-22 16:14 257 3 gusting 3 26.7
2016-Jul-22 16:04 269 4 gusting 5 27.8
2016-Jul-22 15:54 226 3 gusting 3 27.8
2016-Jul-22 15:44 188 27.8
2016-Jul-22 15:34 042 2 gusting 4 28.9
2016-Jul-22 15:24 181 3 gusting 4 28.9
2016-Jul-22 15:14 184 28.9
2016-Jul-22 15:04 285 5 gusting 8 28.9
2016-Jul-22 14:54 283 3 gusting 6 30.6
2016-Jul-22 14:44 158 4 gusting 4 30.6
2016-Jul-22 14:34 212 31.1
2016-Jul-22 14:24 188 30.0
2016-Jul-22 14:14 273 30.6
2016-Jul-22 14:04 232 3 gusting 4 30.6
2016-Jul-22 13:54 226 31.1
2016-Jul-22 13:44 188 30.0
2016-Jul-22 13:34 200 30.6
2016-Jul-22 13:24 250 30.0
2016-Jul-22 13:14 027 1 gusting 2 31.7
2016-Jul-22 13:04 025 2 gusting 6 31.1
2016-Jul-22 12:54 252 29.4
2016-Jul-22 12:44 326 30.0
2016-Jul-22 12:34 048 31.7
2016-Jul-22 12:24 186 31.7
2016-Jul-22 12:14 191 31.7
2016-Jul-22 12:04 191 31.1
2016-Jul-22 11:54 156 31.1
2016-Jul-22 11:44 266 30.6
2016-Jul-22 11:34 291 1 gusting 3 30.6
2016-Jul-22 11:24 263 30.6
2016-Jul-22 11:14 167 30.6
2016-Jul-22 11:04 238 30.6
2016-Jul-22 10:54 240 30.0
2016-Jul-22 10:44 359 29.4
2016-Jul-22 10:34 128 2 gusting 6 28.9
2016-Jul-22 10:24 195 24.4
2016-Jul-22 10:14 231 23.9
2016-Jul-22 10:04 294 26.1
2016-Jul-22 09:54 292 3 gusting 4 27.2
2016-Jul-22 09:44 222 25.6
2016-Jul-22 09:34 165 25.0
2016-Jul-22 09:24 165 27.2
2016-Jul-22 09:14 165 27.2
2016-Jul-22 09:04 162 26.7
2016-Jul-22 08:54 253 5 gusting 5 26.7
2016-Jul-22 08:44 281 26.1
2016-Jul-22 08:34 300 1 gusting 1 26.1
2016-Jul-22 08:24 264 25.6
2016-Jul-22 08:14 034 25.6
2016-Jul-22 08:04 034 25.0
2016-Jul-22 07:54 034 25.0
2016-Jul-22 07:44 034 25.0
2016-Jul-22 07:34 034 25.0
2016-Jul-22 07:24 034 24.4
2016-Jul-22 07:14 034 24.4
2016-Jul-22 07:04 034 23.9
2016-Jul-22 06:54 034 22.8
2016-Jul-22 06:44 034 22.2
2016-Jul-22 06:34 034 21.7
2016-Jul-22 06:24 034 20.6
2016-Jul-22 06:14 034 20.0
2016-Jul-22 06:04 034 19.4
2016-Jul-22 05:54 034 19.4
2016-Jul-22 05:44 056 19.4
2016-Jul-22 05:34 045 19.4
2016-Jul-22 05:24 045 18.3
2016-Jul-22 05:14 065 17.2
2016-Jul-22 05:04 065 17.2
2016-Jul-22 04:54 065 16.7
2016-Jul-22 04:44 087 17.2
2016-Jul-22 04:34 083 17.2
2016-Jul-22 04:24 083 17.2
2016-Jul-22 04:14 084 17.2
2016-Jul-22 04:04 091 17.2
2016-Jul-22 03:54 056 17.8
2016-Jul-22 03:44 076 17.2
2016-Jul-22 03:34 065 16.7
2016-Jul-22 03:24 077 16.7
2016-Jul-22 03:14 086 17.2
2016-Jul-22 03:04 086 17.2
2016-Jul-22 02:54 086 17.2
2016-Jul-22 02:44 065 17.2
2016-Jul-22 02:34 052 1 gusting 3 17.2
2016-Jul-22 02:24 069 17.2
2016-Jul-22 02:14 053 17.2
2016-Jul-22 02:04 053 17.2
2016-Jul-22 01:54 053 17.2
2016-Jul-22 01:44 093 17.8
2016-Jul-22 01:34 082 17.8
2016-Jul-22 01:24 065 17.2
2016-Jul-22 01:14 065 17.8
2016-Jul-22 01:04 065 17.8
2016-Jul-22 00:54 103 17.8
2016-Jul-22 00:44 058 17.8
2016-Jul-22 00:34 058 17.2
2016-Jul-22 00:24 051 17.8
2016-Jul-22 00:13 051 17.8
2016-Jul-22 00:03 051 17.2
2016-Jul-21 23:53 051 17.2
2016-Jul-21 23:43 051 17.8
2016-Jul-21 23:33 072 17.8
2016-Jul-21 23:23 077 2 gusting 3 18.3
2016-Jul-21 23:13 031 18.3
2016-Jul-21 23:03 031 17.8
2016-Jul-21 22:53 031 17.8
2016-Jul-21 22:43 031 18.3
2016-Jul-21 22:33 031 18.3
2016-Jul-21 22:23 031 18.3
2016-Jul-21 22:13 035 18.3
2016-Jul-21 22:03 035 18.9
2016-Jul-21 21:53 035 19.4
2016-Jul-21 21:43 035 20.0
2016-Jul-21 21:33 035 20.0
2016-Jul-21 21:24 035 19.4
2016-Jul-21 21:13 035 20.0
2016-Jul-21 21:03 075 20.6
2016-Jul-21 20:53 053 21.1
2016-Jul-21 20:43 075 21.7
2016-Jul-21 20:33 075 21.1
2016-Jul-21 20:23 245 21.7
2016-Jul-21 20:13 245 21.7
2016-Jul-21 20:03 245 22.8
2016-Jul-21 19:53 245 22.8
2016-Jul-21 19:43 245 22.8
2016-Jul-21 19:33 245 23.9
2016-Jul-21 19:23 245 25.0
2016-Jul-21 19:13 245 24.4
2016-Jul-21 19:03 245 24.4
2016-Jul-21 18:53 245 25.0
2016-Jul-21 18:43 245 23.9
2016-Jul-21 18:33 245 24.4
2016-Jul-21 18:23 245 26.7
2016-Jul-21 18:13 183 26.1
2016-Jul-21 18:03 264 27.2
2016-Jul-21 17:53 281 27.8
2016-Jul-21 17:43 218 28.3
2016-Jul-21 17:33 194 29.4
2016-Jul-21 17:23 238 2 gusting 3 27.8
2016-Jul-21 17:13 231 27.8
2016-Jul-21 17:03 231 27.2
2016-Jul-21 16:53 250 28.3
2016-Jul-21 16:43 204 28.3
2016-Jul-21 16:33 224 27.2
2016-Jul-21 16:23 248 27.2
2016-Jul-21 16:13 193 27.8
2016-Jul-21 16:03 197 5 gusting 5 27.8
2016-Jul-21 15:53 193 4 gusting 6 28.3
2016-Jul-21 15:43 173 27.8
2016-Jul-21 15:33 211 3 gusting 6 28.3
2016-Jul-21 15:23 212 28.3
2016-Jul-21 15:13 169 28.3
2016-Jul-21 15:03 207 6 gusting 6 28.3
2016-Jul-21 14:53 197 3 gusting 6 29.4
2016-Jul-21 14:43 194 28.9
2016-Jul-21 14:33 165 5 gusting 9 28.9
2016-Jul-21 14:23 200 5 gusting 9 29.4
2016-Jul-21 14:13 131 29.4
2016-Jul-21 14:03 186 8 gusting 11 29.4
2016-Jul-21 13:53 172 3 gusting 13 30.6
2016-Jul-21 13:43 173 2 gusting 5 30.0
2016-Jul-21 13:33 176 3 gusting 4 30.6
2016-Jul-21 13:23 194 9 gusting 12 30.0
2016-Jul-21 13:13 169 5 gusting 7 31.1
2016-Jul-21 13:03 044 0 gusting 0 31.1
2016-Jul-21 12:53 117 31.7
2016-Jul-21 12:43 239 5 gusting 6 31.1
2016-Jul-21 12:33 359 31.7
2016-Jul-21 12:23 243 32.2
2016-Jul-21 12:13 298 31.7
2016-Jul-21 12:03 176 30.6
2016-Jul-21 11:53 201 2 gusting 2 31.7
2016-Jul-21 11:43 190 31.1
2016-Jul-21 11:33 245 2 gusting 3 30.0
2016-Jul-21 11:23 240 29.4
2016-Jul-21 11:13 129 28.9
2016-Jul-21 11:03 214 31.1